Regional Weather Roundup
Issued by NWS Sterling, VA

Home | Current Version | Previous Version | Graphics & Text | Print | Product List | Glossary On
Versions: 1 2 3 4 5 6 7 8 9 10 11 12 13 14 15 16 17 18 19 20 21 22 23 24 25 26 27 28 29 30 31 32 33 34 35 36 37 38 39 40 41 42 43 44 45 46 47 48 49 50
000
ASUS41 KLWX 210010
RWRLWX

REGIONAL WEATHER ROUNDUP
NATIONAL WEATHER SERVICE BALTIMORE MD/WASHINGTON DC
800 PM EDT SAT SEP 20 2014

Note: "FAIR" indicates few or no clouds below 12,000 feet
with no significant weather and/or obstructions to visibility.
 TC=TEMPERATURE CELSIUS

 * =Non NWS site. Station does not report precipitation (e.g. rain,
    snow, etc.), thunder, or fog.

DCZ001-MDZ009-015-VAZ040>042-051-053>054-210100-
WASHINGTON METRO

CITY           SKY/WX    TMP DP  RH WIND       PRES   REMARKS
WASHINGTON NAT PTCLDY    76  57  51 SE10      30.07S
DULLES         PTCLDY    70  58  65 SE6       30.05F
ANDREWS AFB    CLEAR     67  60  79 SE6       30.07F
QUANTICO       CLEAR     72  62  71 S8        30.07S
COLLEGE PARK*  CLEAR     68  61  77 CALM      30.07S
LEESBURG*      CLEAR     73  61  64 S5        30.06S
MANASSAS*      CLEAR     66  61  82 S7        30.05F
GAITHERSBURG*  CLEAR     66  55  68 SE7       30.10S

$$

MDZ006>007-011-014-210100-
BALTIMORE METRO

CITY           SKY/WX    TMP DP  RH WIND       PRES   REMARKS
BWI AIRPORT    PTCLDY    71  59  65 SE3       30.07S
MD SCIENCE CTR   N/A     75  61  61 MISG      30.08S
MARTIN STATE   CLEAR     72  64  78 E5        30.09S
ANNAPOLIS      CLEAR     71  63  75 CALM      30.07S
FORT MEADE*    CLEAR     63  59  88 CALM      30.09F

$$

MDZ012-015-019>023-210100-
MARYLAND EASTERN SHORE

CITY           SKY/WX    TMP DP  RH WIND       PRES   REMARKS
OCEAN CITY     MOCLDY    71  67  87 E7        30.08S
SALISBURY      CLOUDY    72  65  78 E6        30.08F
BAY BRIDGE AP*   N/A     70  61  73 CALM      30.08S
CAMBRIDGE*     CLEAR     72  63  73 SE5       30.08S

$$

MDZ017>025-210100-
SOUTHERN MARYLAND

CITY           SKY/WX    TMP DP  RH WIND       PRES   REMARKS
PATUXENT RIVER CLEAR     72  60  66 E12       30.07F
ST INIGOES     CLEAR     67  60  78 E5        30.07S
LEONARDTOWN*   CLEAR     68  61  77 CALM      30.09S

$$

MDZ003>005-210100-
NORTH CENTRAL MARYLAND

CITY           SKY/WX    TMP DP  RH WIND       PRES   REMARKS
FREDERICK*     CLEAR     73  59  60 VRB3      30.07F
HAGERSTOWN APT CLEAR     72  55  55 SE7       30.03F
WESTMINSTER*   CLEAR     70  55  60 SE8       30.06F

$$

MDZ501>502-210100-
WESTERN MARYLAND

CITY           SKY/WX    TMP DP  RH WIND       PRES   REMARKS
OAKLAND*       CLEAR     63  63 100 S5        30.09S
CUMBERLAND*    CLEAR     73  54  49 CALM      30.04S

$$

VAZ025>031-210100-
SHENANDOAH VALLEY

CITY           SKY/WX    TMP DP  RH WIND       PRES   REMARKS
WINCHESTER*    CLEAR     70  57  64 SE9       30.04S
STAUNTON*      CLEAR     70  54  57 CALM      30.08S

$$

WVZ021-048>050-054>055-210100-
EASTERN WEST VIRGINIA PANHANDLE

CITY           SKY/WX    TMP DP  RH WIND       PRES   REMARKS
MARTINSBURG    CLEAR     72  55  55 SE6       30.03F
PETERSBURG*    MOCLDY    70  54  56 SE6       30.02S

$$

VAZ036>039-050-210100-
CENTRAL FOOTHILLS

CITY           SKY/WX    TMP DP  RH WIND       PRES   REMARKS
CHARLOTTESVILL CLEAR     71  58  63 CALM      30.05S
ORANGE*        CLEAR     66  57  72 NE5       30.07S

$$

VAZ055>057-210100-
NORTH AND CENTRAL PIEDMONT

CITY           SKY/WX    TMP DP  RH WIND       PRES   REMARKS
FREDERICKSBRG* PTCLDY    72  58  60 E3        30.05S
STAFFORD*      CLEAR     65  60  81 CALM      30.10S

$$

NCZ024-NYZ072-PAZ021-071-VAZ022-071-210100-
OTHER REGIONAL OBSERVATIONS

CITY           SKY/WX    TMP DP  RH WIND       PRES   REMARKS
NEW YORK CITY  CLEAR     70  60  70 VRB3      30.14F
PHILADELPHIA   PTCLDY    70  59  68 SE6       30.11R
PITTSBURGH     PTCLDY    72  61  68 S5        29.96S
ROANOKE        PTCLDY    70  57  63 E5        30.08F
RICHMOND       MOCLDY    71  63  75 E6        30.06F
RALEIGH        MOCLDY    72  59  63 NE7       30.03F

$$

ANZ530>537-210100-
MARINE OBSERVATIONS

STATION/POSITION TIME  TEMP    WIND        PRES
                       AIR SEA DIR/SP/G
                 (UTC) (F)     (DEG/KT/KT) (MB)
THOMAS PT LIGHT  0000   74 74  190/  4/  4 1019.4R
BALT KEY BRIDGE  0000   74     120/  8/  9 1018.1S
COVE POINT       0000   72     160/ 12/ 14 1018.3F
LEWISETTA        0000   72 75  110/  8/  9 1017.9F
SOLOMONS ISLAND  0000      77                N/A
PINEY POINT      0000          130/ 11/ 12   N/A

$$




USA.gov is the U.S. government's official web portal to all federal, state and local government web resources and services.